7 * 24
多渠道服务支持
INTELSAT 3-F4 是一颗由国际通信卫星组织(INTELSAT)运营的通信卫星,于1971年发射,是INTELSAT III系列的一部分。该卫星主要用于跨大西洋的电视和电话信号传输,显著提升了国际通信能力。它搭载C波段转发器,运行在地球同步轨道,为北美和欧洲之间提供稳定的通信服务。INTELSAT 3-F4 在通信卫星发展史上具有重要意义,标志着卫星通信技术进入实用化和商业化阶段。
| 数据来源 | 国际轨道数据 |
| 星历时间: | 2025-12-14T15:09:11+0800 1天前 查看轨道信息 |
| 半长轴: | 45299.847km |
| 偏心率: | 0.0023017 |
| 轨道倾角: | 4.246° |
| 近地点辐角 | 68.378° |
| 升交点赤经 | 288.763° |
| 平近点角 | 316.635° |
| 近地点: | 38817.445km |
| 远地点: | 39025.979km |
| 周期: | 1599.208分钟 |
| 每日圈数: | 0.900446 |